Location: Unspecified
(34.4500°N, 0.0000°E)
Time: 16:55:54
(UTC+00:00)

Envisat - Pass Details

Date: 07 March 2021
Orbit: 764 x 766 km, 98.1° (Epoch: 21 April)

Event Time Altitude Azimuth Distance (km) Brightness Sun altitude
Rises 04:14:21 0° 38° (NE) 3,235 7.0 -26.8°
Reaches altitude 10° 04:18:18 10° 69° (ENE) 2,302 6.5 -26.1°
Maximum altitude 04:20:11 12° 91° (E) 2,164 6.3 -25.7°
Drops below altitude 10° 04:22:04 10° 113° (ESE) 2,296 6.2 -25.3°
Sets 04:25:58 0° 144° (SE) 3,215 6.5 -24.5°
